TimeMST,TemperatureF,Dew PointF,Humidity,Sea Level PressureIn,VisibilityMPH,Wind Direction,Wind SpeedMPH,Gust SpeedMPH,PrecipitationIn,Events,Conditions,WindDirDegrees,DateUTC
12:52 AM,43.0,28.9,58,29.84,10.0,South,17.3,-,N/A,,Clear,190,2013-11-08 07:52:00
1:52 AM,43.0,28.0,56,29.81,10.0,South,17.3,23.0,N/A,,Clear,190,2013-11-08 08:52:00
2:52 AM,42.1,28.0,58,29.78,10.0,South,20.7,28.8,N/A,,Clear,190,2013-11-08 09:52:00
3:52 AM,42.1,28.0,58,29.73,10.0,SSW,17.3,26.5,N/A,,Clear,200,2013-11-08 10:52:00
4:52 AM,42.1,28.9,60,29.72,10.0,South,13.8,23.0,N/A,,Mostly Cloudy,190,2013-11-08 11:52:00
5:52 AM,43.0,30.0,60,29.68,10.0,South,17.3,24.2,N/A,,Clear,190,2013-11-08 12:52:00
6:52 AM,50.0,30.0,46,29.65,10.0,SW,11.5,17.3,N/A,,Clear,230,2013-11-08 13:52:00
7:52 AM,48.9,30.0,48,29.69,10.0,West,8.1,-,N/A,,Clear,260,2013-11-08 14:52:00
8:52 AM,48.9,30.9,50,29.71,10.0,WNW,9.2,-,N/A,,Clear,300,2013-11-08 15:52:00
9:52 AM,51.1,30.9,46,29.74,10.0,West,10.4,21.9,N/A,,Clear,280,2013-11-08 16:52:00
10:52 AM,52.0,36.0,54,29.77,10.0,NW,10.4,18.4,N/A,,Clear,320,2013-11-08 17:52:00
11:52 AM,53.1,37.0,55,29.77,10.0,WSW,5.8,-,N/A,,Mostly Cloudy,250,2013-11-08 18:52:00
12:52 PM,54.0,28.0,37,29.76,10.0,WNW,19.6,27.6,N/A,,Clear,290,2013-11-08 19:52:00
1:52 PM,53.1,27.0,37,29.79,10.0,WNW,23.0,28.8,N/A,,Clear,290,2013-11-08 20:52:00
2:52 PM,52.0,26.1,37,29.81,10.0,WNW,18.4,24.2,N/A,,Clear,300,2013-11-08 21:52:00
3:52 PM,52.0,25.0,35,29.82,10.0,WNW,15.0,21.9,N/A,,Clear,290,2013-11-08 22:52:00
4:52 PM,46.0,25.0,44,29.86,10.0,NW,5.8,-,N/A,,Clear,310,2013-11-08 23:52:00
5:52 PM,39.0,26.1,60,29.90,10.0,NW,4.6,-,N/A,,Clear,320,2013-11-09 00:52:00
6:52 PM,35.1,26.1,70,29.92,10.0,South,8.1,-,N/A,,Clear,190,2013-11-09 01:52:00
7:52 PM,36.0,28.0,73,29.94,10.0,Calm,Calm,-,N/A,,Clear,0,2013-11-09 02:52:00
8:52 PM,36.0,26.1,67,29.96,10.0,Calm,Calm,-,N/A,,Clear,0,2013-11-09 03:52:00
9:52 PM,33.1,26.1,75,29.99,10.0,WSW,3.5,-,N/A,,Clear,250,2013-11-09 04:52:00
10:52 PM,34.0,26.1,73,30.01,10.0,SW,3.5,-,N/A,,Clear,230,2013-11-09 05:52:00
11:52 PM,35.1,25.0,67,30.03,10.0,SW,3.5,-,N/A,,Clear,230,2013-11-09 06:52:00